Starlink 5448

operational
NORAD ID: 54770 Int'l Des: 2022-175 Owner: SPXS Country: US Constellation: starlink
LEOCIRCULAR

About Starlink 5448

Description loading...

Live Position

Loading 3D Globe...

Upcoming Passes

Altitude History

Altitude vs Time

uPlot chart will show altitude changes over time

Two-Line Element Set

1 54770U 22175N 25303.17485691 -.00002170 00000-0 -11829-3 0 9990
2 54770 53.2169 255.2085 0001257 78.3625 281.7508 15.08839508160425
Epoch: Oct 30, 2025 • Age: 21 hours

Current Status

Altitude 539.7 km
Velocity 7.60 km/s
Sub-Earth Point 19.28°N, 147.75°W
Launch Date Dec 17, 2022
Age 2.8 years
Type internet

Technical Details

Classification Payload
Mass 305.00 kg
Dry Mass 290.00 kg
Total Mass 305.00 kg
Length 0.20 m
Diameter 2.80 m
Span 9.00 m
Shape Box + pan
Manufacturer SPXS
Bus Type Starlink
Phase Status In Orbit
Owner/State SPXS/US

Large Constellations

Loading constellations...